EB3EFU-2 Weather Reports


time (UTC)temp
C
wind
direction
speed
KPH
gust
KPH
rain 1hr
cm
rain 24hr
cm
rain mn
cm
humidity
%
barometer
mb
20260507192702 15 125 1.6 9.7 0.00 0.00 0.00 78 1012.7
20260507191802 15 148 3.2 9.7 0.00 0.00 0.00 78 1012.8
20260507190902 15 138 3.2 9.7 0.00 0.00 0.00 77 1012.4
20260507190003 15 131 3.2 4.8 0.00 0.00 0.00 76 1012.5
20260507185402 16 172 1.6 3.2 0.00 0.00 0.00 75 1012.6
20260507184502 16 111 1.6 6.4 0.00 0.00 0.00 75 1012.6
20260507183602 16 112 1.6 6.4 0.00 0.03 0.00 74 1012.5
20260507182702 16 67 3.2 11.3 0.00 0.03 0.00 74 1012.4
20260507181802 16 113 3.2 6.4 0.00 0.03 0.00 73 1012.2
20260507180902 16 102 4.8 8.0 0.00 0.03 0.00 71 1012.3
20260507180002 16 62 4.8 9.7 0.00 0.03 0.00 71 1012.2
20260507175402 16 85 4.8 11.3 0.00 0.03 0.00 70 1012.2
20260507174523 16 101 4.8 11.3 0.00 0.03 0.00 70 1012.4
20260507173623 17 120 6.4 12.9 0.00 0.23 0.00 69 1012.3
20260507172702 17 105 8.0 11.3 0.00 0.23 0.00 67 1012.4
20260507171802 17 92 4.8 14.5 0.00 0.23 0.00 65 1012.3
20260507170902 17 132 4.8 12.9 0.00 0.23 0.00 63 1012.3
20260507170002 17 114 6.4 12.9 0.00 0.23 0.00 64 1012.3
20260507165402 17 102 4.8 11.3 0.00 0.23 0.00 63 1012.3
20260507164502 17 103 6.4 12.9 0.00 0.23 0.00 64 1012.5
20260507163602 17 79 6.4 12.9 0.00 0.23 0.00 65 1012.5
20260507162702 17 84 6.4 17.7 0.00 0.38 0.00 63 1012.6
20260507161802 17 68 8.0 17.7 0.00 0.56 0.00 63 1012.7
20260507160903 17 93 8.0 16.1 0.00 0.66 0.00 60 1012.7
20260507160003 17 59 11.3 20.9 0.00 0.69 0.00 62 1012.4
20260507155403 17 63 11.3 20.9 0.00 0.69 0.00 61 1012.7
20260507154524 17 48 9.7 24.1 0.00 0.69 0.00 61 1012.5
20260507153602 17 47 11.3 20.9 0.00 0.69 0.00 59 1012.4
20260507152723 17 51 11.3 20.9 0.00 0.69 0.00 59 1012.3
20260507151824 18 75 9.7 19.3 0.00 0.69 0.00 57 1012.5
20260507150902 17 88 8.0 19.3 0.00 0.69 0.00 52 1012.6
20260507150003 17 57 9.7 22.5 0.00 0.69 0.00 60 1012.5
20260507145403 17 60 9.7 22.5 0.00 0.69 0.00 59 1012.6
20260507144503 17 76 9.7 17.7 0.00 0.69 0.00 58 1012.5
20260507143603 18 94 8.0 17.7 0.00 0.69 0.00 55 1012.6
20260507142724 18 80 8.0 16.1 0.00 0.69 0.00 59 1012.9
20260507141824 17 76 9.7 19.3 0.00 0.69 0.00 57 1012.8
20260507140903 17 95 8.0 19.3 0.00 0.69 0.00 58 1012.9
20260507140003 17 99 8.0 24.1 0.00 0.69 0.00 58 1013.2
20260507135403 17 74 8.0 20.9 0.00 0.69 0.00 57 1013.3
20260507134524 18 100 8.0 20.9 0.00 0.69 0.00 56 1013.2
20260507133603 18 109 11.3 20.9 0.00 0.69 0.00 55 1013.3
20260507132703 17 90 11.3 17.7 0.00 0.69 0.00 53 1013.4
20260507131824 18 97 8.0 20.9 0.00 0.69 0.00 57 1013.5
20260507130903 18 118 8.0 19.3 0.00 0.69 0.00 58 1013.5
20260507130003 17 84 9.7 24.1 0.00 0.69 0.00 57 1013.7
20260507125424 17 78 11.3 24.1 0.00 0.69 0.00 58 1013.6
20260507124503 18 82 11.3 24.1 0.00 0.69 0.00 57 1013.5
20260507123603 18 83 8.0 19.3 0.00 0.69 0.00 58 1013.7
20260507122724 17 67 9.7 24.1 0.00 0.69 0.00 58 1013.6
20260507121824 17 54 12.9 25.7 0.00 0.69 0.00 61 1013.6
20260507120924 17 58 11.3 24.1 0.00 0.69 0.00 61 1013.4
20260507120003 17 65 12.9 24.1 0.00 0.69 0.00 62 1013.5
20260507115403 17 59 12.9 24.1 0.00 0.69 0.00 61 1013.5
20260507114503 17 76 11.3 25.7 0.00 0.69 0.00 60 1013.8
20260507113624 17 71 12.9 25.7 0.00 0.69 0.00 63 1013.8
20260507112724 17 62 12.9 25.7 0.00 0.69 0.00 61 1014.0
20260507111824 17 48 14.5 24.1 0.00 0.69 0.00 61 1014.1
20260507110903 17 54 9.7 22.5 0.00 0.69 0.00 59 1013.9
20260507110003 16 58 11.3 20.9 0.00 0.69 0.00 61 1014.1
20260507105403 16 71 12.9 22.5 0.00 0.69 0.00 61 1014.2
20260507104503 16 71 12.9 22.5 0.00 0.69 0.00 62 1013.9
20260507103603 17 76 8.0 17.7 0.00 0.69 0.00 62 1014.1
20260507102703 17 59 12.9 17.7 0.00 0.69 0.00 63 1014.1
20260507101824 17 74 9.7 20.9 0.00 0.69 0.00 63 1014.3
20260507100903 17 49 9.7 19.3 0.00 0.69 0.00 64 1014.5
20260507100003 16 50 9.7 17.7 0.00 0.69 0.00 64 1014.3
20260507095403 17 47 9.7 17.7 0.00 0.69 0.00 62 1014.3
20260507094524 16 49 8.0 17.7 0.00 0.69 0.00 62 1014.6
20260507093603 17 39 6.4 14.5 0.00 0.69 0.00 63 1014.2
20260507092703 16 35 6.4 14.5 0.00 0.69 0.00 60 1014.2
20260507091803 16 44 6.4 11.3 0.00 0.69 0.00 64 1014.3
20260507090903 16 43 6.4 11.3 0.00 0.69 0.00 64 1014.1
20260507090004 16 9 6.4 9.7 0.00 0.69 0.00 63 1014.1
20260507085403 16 21 4.8 9.7 0.00 0.69 0.00 63 1014.0
20260507084506 16 36 6.4 9.7 0.00 0.69 0.00 67 1014.1
20260507083603 15 3 6.4 9.7 0.00 0.69 0.00 70 1014.0
20260507082701 16 355 4.8 9.7 0.00 0.69 0.00 71 1014.3
20260507081822 16 42 3.2 8.0 0.00 0.69 0.00 69 1014.3
20260507080901 16 30 3.2 8.0 0.00 0.69 0.00 72 1014.5
20260507080001 15 259 1.6 6.4 0.00 0.69 0.00 76 1014.5
20260507075401 15 291 1.6 6.4 0.00 0.69 0.00 75 1014.5
20260507074501 14 313 3.2 11.3 0.00 0.69 0.00 80 1014.7
20260507073601 14 135 3.2 8.0 0.00 0.69 0.00 82 1014.4
20260507072701 14 245 3.2 8.0 0.00 0.69 0.00 84 1014.4
20260507071801 13 218 3.2 8.0 0.00 0.69 0.00 84 1014.3
20260507070901 13 325 3.2 8.0 0.00 0.69 0.00 86 1014.3
20260507070001 13 345 1.6 6.4 0.00 0.69 0.00 87 1014.2
20260507065401 12 67 1.6 6.4 0.00 0.69 0.00 90 1014.4
20260507064522 12 134 3.2 6.4 0.00 0.69 0.00 91 1014.2
20260507063601 12 170 3.2 6.4 0.00 0.69 0.00 91 1014.2
20260507062701 11 118 3.2 8.0 0.00 0.69 0.00 92 1014.3
20260507061801 11 161 3.2 6.4 0.00 0.69 0.00 93 1014.1
20260507060901 11 142 3.2 6.4 0.00 0.69 0.00 93 1013.9
20260507060001 11 136 1.6 6.4 0.00 0.69 0.00 94 1014.0
20260507055401 11 146 3.2 6.4 0.00 0.69 0.00 94 1013.9
20260507054501 11 128 1.6 6.4 0.00 0.69 0.00 96 1014.1
20260507053601 10 180 1.6 4.8 0.00 0.69 0.00 96 1014.0
20260507052701 10 172 1.6 4.8 0.00 0.69 0.00 96 1013.8
20260507051801 10 112 3.2 4.8 0.00 0.69 0.00 96 1013.8
20260507050922 10 141 3.2 6.4 0.00 0.69 0.00 96 1013.7
20260507050001 9 99 3.2 6.4 0.00 0.69 0.00 96 1013.7
20260507045401 9 98 1.6 4.8 0.00 0.69 0.00 96 1013.5
20260507044501 9 74 1.6 4.8 0.00 0.69 0.00 96 1013.5
20260507043601 9 119 1.6 4.8 0.00 0.69 0.00 96 1013.5
20260507042701 9 170 1.6 4.8 0.00 0.69 0.00 96 1013.5
20260507041801 10 117 1.6 4.8 0.00 0.69 0.00 96 1013.6
20260507040922 10 92 1.6 4.8 0.00 0.69 0.00 96 1013.7
20260507040002 10 66 1.6 4.8 0.00 0.69 0.00 96 1013.5
20260507035422 10 141 3.2 8.0 0.00 0.69 0.00 96 1013.7
20260507034501 10 150 3.2 8.0 0.00 0.69 0.00 96 1013.5
20260507033601 10 116 3.2 6.4 0.00 0.69 0.00 96 1013.3
20260507032702 10 86 3.2 6.4 0.00 0.69 0.00 96 1013.3
20260507031801 10 150 1.6 6.4 0.00 0.69 0.00 95 1013.4
20260507030901 10 139 1.6 6.4 0.00 0.69 0.00 95 1013.5
20260507030023 10 116 1.6 6.4 0.00 0.69 0.00 95 1013.4
20260507025403 10 103 3.2 6.4 0.00 0.69 0.00 96 1013.4
20260507024502 10 143 3.2 6.4 0.00 0.69 0.00 96 1013.5
20260507023602 10 126 3.2 8.0 0.00 0.69 0.00 96 1013.5
20260507022701 10 65 3.2 8.0 0.00 0.69 0.00 95 1013.4
20260507021802 10 108 3.2 9.7 0.00 0.69 0.00 95 1013.6
20260507020923 10 131 3.2 9.7 0.00 0.69 0.00 95 1013.5
20260507020002 10 137 3.2 9.7 0.00 0.69 0.00 95 1013.4
20260507015402 11 86 4.8 11.3 0.00 0.69 0.00 95 1013.5
20260507014502 11 91 3.2 11.3 0.00 0.69 0.00 95 1013.5
20260507013602 11 136 1.6 8.0 0.00 0.69 0.00 95 1013.6
20260507012702 11 143 3.2 8.0 0.00 0.69 0.00 95 1013.8
20260507011802 11 93 3.2 8.0 0.00 0.69 0.00 95 1013.9
20260507010902 11 150 3.2 8.0 0.00 0.69 0.00 95 1013.8
20260507010002 11 120 3.2 8.0 0.00 0.69 0.00 95 1013.9
20260507005423 11 77 4.8 9.7 0.00 0.69 0.00 95 1014.2
20260507004502 11 20 4.8 11.3 0.00 0.69 0.00 95 1014.1
20260507003602 11 169 1.6 6.4 0.00 0.69 0.00 95 1014.2
20260507002723 11 84 3.2 8.0 0.00 0.69 0.00 94 1014.3
20260507001802 11 136 3.2 8.0 0.00 0.69 0.00 95 1014.1
20260507000902 11 125 1.6 8.0 0.00 0.69 0.00 95 1014.2
20260507000023 11 141 3.2 8.0 0.00 0.69 0.00 94 1014.4
20260506235402 11 130 3.2 9.7 0.00 0.69 0.00 94 1014.3
20260506234502 11 141 3.2 12.9 0.00 0.69 0.00 94 1014.3
20260506233602 11 86 3.2 9.7 0.00 0.69 0.00 94 1014.2
20260506232702 11 113 1.6 6.4 0.00 0.69 0.00 94 1014.6
20260506231802 11 71 1.6 4.8 0.00 0.69 0.00 94 1014.2
20260506230923 11 78 1.6 4.8 0.00 0.69 0.00 94 1014.2
20260506230002 12 144 1.6 4.8 0.00 0.69 0.00 93 1014.5
20260506225402 12 228 0.0 4.8 0.00 0.69 0.00 94 1014.3
20260506224502 12 99 0.0 3.2 0.00 0.69 0.00 94 1014.4
20260506223602 12 95 1.6 4.8 0.00 0.69 0.00 94 1014.3
20260506222702 12 98 1.6 4.8 0.00 0.69 0.00 93 1014.3
20260506221802 12 116 3.2 6.4 0.00 0.69 0.00 93 1014.3
20260506220902 12 148 4.8 8.0 0.00 0.69 0.00 93 1014.1
20260506220002 12 141 3.2 6.4 0.00 0.69 0.00 93 1014.3
20260506215402 12 156 3.2 6.4 0.00 0.69 0.69 93 1014.4
20260506214502 12 213 0.0 4.8 0.00 0.69 0.69 93 1014.6
20260506213602 12 127 1.6 4.8 0.00 0.69 0.69 92 1014.5
20260506212702 12 122 3.2 4.8 0.00 0.69 0.69 92 1014.4
20260506211802 12 134 3.2 6.4 0.00 0.69 0.69 91 1014.4
20260506210902 12 125 3.2 4.8 0.00 0.69 0.69 91 1014.4
20260506210002 12 191 1.6 6.4 0.00 0.69 0.69 91 1014.4
20260506205402 12 295 1.6 8.0 0.00 0.69 0.69 90 1014.4
20260506204523 13 347 3.2 8.0 0.00 0.69 0.69 90 1014.3
20260506203602 13 353 3.2 11.3 0.00 0.69 0.69 90 1014.2
20260506202702 13 345 6.4 14.5 0.00 0.69 0.69 89 1014.3
20260506201802 13 343 8.0 19.3 0.00 0.69 0.69 90 1014.1
20260506200902 13 346 4.8 14.5 0.00 0.69 0.69 91 1014.0
20260506200002 13 1 6.4 14.5 0.00 0.69 0.69 91 1014.2
20260506195402 13 11 4.8 11.3 0.00 0.69 0.69 91 1013.8
20260506194502 13 15 4.8 9.7 0.00 0.69 0.69 91 1013.7
20260506193602 13 9 4.8 9.7 0.03 0.69 0.69 91 1013.7